SCP
0 0 0 0 0 0 0 0 0 0 0 0 0 0 0 0 0 0 0 1 1 2 5 5 3 2 1 1 1 0 1 0 0 0 0 0 0 0 0 0 0 0 0 0
0 0 0 0 0 0 0 0 0 0 0 0 0 0 0 0 0 0 0 0 2 3 4 5 4 2 1 0 0 0 0 0 1 1 1 1 0 0 0 0 0 1 0 0
0 0 0 0 0 0 0 0 0 0 0 0 0 0 0 0 0 0 0 0 0 1 2 5 4 2 0 1 1 0 0 1 1 1 1 0 0 0 1 1 1 0 0 1
0 0 0 0 0 0 0 0 0 0 0 0 0 0 0 0 0 0 0 0 0 0 2 3 2 1 1 1 0 1 1 1 1 1 1 1 1 1 1 1 1 1 1 0
0 0 0 0 0 0 0 0 0 0 0 0 0 0 0 0 0 0 0 0 0 0 3 3 1 1 2 1 1 1 1 0 1 1 1 1 2 2 2 3 2 2 1 1
0 0 0 0 0 0 0 0 0 0 0 0 0 0 0 0 0 0 0 0 0 1 3 2 2 1 2 1 1 1 1 1 1 1 1 2 3 3 3 3 2 1 0 1
0 0 0 0 -0 0 0 0 0 0 0 0 0 0 0 0 0 0 0 0 1 1 2 2 2 2 1 1 1 1 1 1 1 1 2 3 3 4 3 3 0 0 0 1
0 0 0 0 1 1 1 1 1 1 1 0 0 0 0 0 0 0 0 1 1 2 2 4 3 3 2 1 1 0 1 2 3 3 3 4 3 3 3 2 1 0 1 0
1 1 0 0 0 0 0 0 0 0 0 0 0 0 0 0 0 0 0 1 3 5 4 5 5 3 2 0 0 0 1 4 4 3 3 2 3 2 2 0 1 0 0 0
0 1 0 0 0 0 0 0 0 0 0 0 0 0 0 0 0 0 1 2 6 5 1 0 0 0 0 0 0 0 0 0 0 1 2 2 0 0 0 0 0 0 0 0
1 1 0 0 0 0 -0 0 0 0 0 0 0 0 1 1 2 2 4 4 3 1 0 1 1 0 0 0 0 0 0 1 1 2 1 0 0 0 0 0 0 0 0 0
0 0 0 0 0 0 0 0 0 0 0 0 0 1 1 2 3 3 1 1 1 1 2 2 0 0 0 0 0 0 1 0 2 2 0 0 0 0 0 0 0 0 0 0
0 -0 0 0 0 0 0 0 0 0 0 0 0 0 1 2 2 2 2 3 3 2 1 1 0 0 0 0 -0 1 1 1 0 0 0 0 0 0 0 0 0 0 0 0
0 0 0 0 0 0 0 0 0 0 0 0 0 0 0 2 2 2 1 0 1 2 2 2 1 1 1 1 1 1 1 0 0 0 0 1 1 0 0 0 0 0 0 0
0 0 0 0 0 0 0 0 0 0 0 0 0 0 0 0 1 2 3 2 2 2 1 1 2 2 1 1 1 1 1 0 0 0 0 0 0 0 0 0 0 0 0 0
0 0 0 0 0 0 0 0 0 0 0 0 0 0 0 0 1 2 2 1 2 2 2 2 2 1 1 1 0 0 0 0 0 0 0 0 0 0 0 0 0 0 0 0
0 0 0 0 0 0 0 0 0 0 0 0 0 0 0 1 1 2 1 1 0 1 0 0 0 0 0 0 0 0 0 0 0 0 0 0 0 0 0 0 0 0 0 0
0 0 0 0 0 0 0 0 0 0 0 0 0 0 1 0 1 1 1 1 0 0 0 0 -0 0 0 0 0 0 0 0 0 0 0 0 0 0 0 0 0 0 0 0
0 0 0 0 0 0 0 0 0 0 0 0 0 1 1 0 1 1 1 0 0 0 0 0 0 0 0 0 0 0 0 0 0 0 0 0 0 0 0 0 0 0 0 0
0 0 0 0 0 0 0 0 0 0 0 0 0 1 1 0 0 0 0 0 0 0 0 0 0 0 0 0 0 0 0 0 0 0 0 0 0 0 0 0 0 0 0 0
-0 0 0 0 0 0 0 0 0 0 0 0 0 1 0 0 0 -0 -0 0 0 0 0 0 0 0 0 0 0 0 0 0 0 0 0 0 0 0 0 0 0 0 0 0
0 0 0 0 0 0 0 0 0 0 0 0 0 0 0 0 0 0 0 0 0 0 0 0 0 0 0 0 0 0 0 0 0 0 0 0 0 0 0 0 0 0 0 0
0 0 -0 0 -0 0 0 0 0 0 0 0 0 0 0 0 0 0 0 0 0 0 0 0 0 0 0 0 0 0 0 0 0 0 0 0 0 0 0 0 0 0 0 0
0 0 0 -0 0 -0 0 0 0 0 0 0 0 0 0 0 0 0 0 0 0 0 0 0 0 0 0 0 0 0 0 0 0 0 0 0 0 0 0 0 0 0 0 0
0 -0 -0 -0 -0 0 0 0 0 0 0 0 0 0 0 0 0 0 0 0 0 0 0 0 0 0 0 0 0 0 0 0 0 0 0 0 0 0 0 0 0 0 0 0
-0 0 0 0 0 0 0 0 0 0 0 0 0 0 0 0 0 0 0 0 0 0 0 0 0 0 0 0 0 0 0 0 0 0 0 0 0 0 0 0 0 0 0 0
0 -0 0 0 0 0 0 0 0 0 0 0 0 0 0 0 0 0 0 0 0 0 0 0 0 0 0 0 0 0 0 0 0 0 0 0 0 0 0 0 0 0 0 0
Wind_Speed_500mb
16 14 7 18 12 17 16 16 15 14 19 22 22 15 24 25 15 16 31 47 62 84 88 94 97 96 90 83 78 66 58 49 44 40 30 25 21 18 14 14 15 19 27 28
3 5 10 12 29 29 33 25 14 16 14 25 51 48 28 30 27 16 10 22 48 75 82 90 99 102 98 93 82 68 58 51 46 40 37 33 26 21 20 20 24 27 34 34
9 2 12 12 9 11 16 29 31 25 17 12 18 17 27 27 16 5 12 11 12 12 73 82 96 100 100 91 73 67 61 54 53 47 42 36 30 28 27 31 32 33 32 34
8 7 11 13 15 10 31 27 32 17 27 26 33 40 31 27 21 16 15 16 16 23 22 61 83 93 94 85 81 70 69 57 52 47 45 38 36 37 36 36 36 31 32 35
9 11 8 9 15 5 7 6 17 33 25 50 56 48 31 18 44 28 19 7 8 13 17 43 67 82 90 84 77 76 63 56 55 48 44 42 47 41 39 42 42 44 42 44
8 11 0 15 12 20 12 7 10 35 22 12 23 12 7 29 26 20 15 11 5 10 19 42 63 78 84 80 74 70 60 55 48 48 49 51 47 45 48 47 49 44 46 49
10 5 15 19 27 39 9 14 27 31 46 38 11 15 22 15 6 16 16 17 13 15 19 43 66 71 70 59 68 64 52 41 41 48 49 48 44 48 50 48 47 37 43 39
7 9 9 41 20 10 5 41 41 37 34 35 22 22 16 8 19 22 25 27 28 28 35 39 66 72 66 61 56 37 45 45 49 50 42 43 46 46 45 35 33 39 45 35
5 9 8 17 23 51 46 39 33 32 26 24 25 21 20 23 27 35 27 39 39 37 36 53 63 66 63 31 61 53 35 51 45 36 40 40 47 46 35 27 32 37 39 28
2 8 7 29 25 35 49 49 31 22 26 27 29 28 25 24 28 33 28 41 42 55 59 57 44 47 43 43 17 12 17 15 52 31 23 28 33 26 28 36 29 44 34 28
9 20 13 20 13 14 25 39 44 31 29 26 24 26 23 18 9 16 29 47 50 53 55 50 45 45 42 26 20 18 4 22 39 47 49 39 39 32 31 29 33 28 28 27
5 5 18 20 21 21 24 24 16 19 26 18 17 20 12 16 14 19 25 32 41 49 48 51 39 18 5 9 10 33 29 24 41 29 20 24 25 24 22 17 21 27 27 25
19 44 19 17 20 22 17 13 15 18 22 25 27 23 12 8 10 12 15 18 21 22 19 20 22 14 22 11 13 42 29 33 30 21 26 27 27 22 20 16 16 19 18 17
35 31 20 23 25 25 19 18 19 21 25 26 24 23 31 25 30 29 31 30 28 34 31 18 11 19 9 30 30 23 21 26 20 21 23 26 24 18 15 16 15 15 12 10
40 35 28 18 12 11 13 20 21 26 29 28 29 33 37 36 34 41 37 30 25 19 17 22 25 24 21 17 20 19 18 18 21 29 25 20 23 24 19 17 17 16 13 14
36 32 28 28 29 26 24 26 26 27 32 36 35 40 38 38 26 36 36 36 31 19 17 17 24 27 20 19 16 24 24 18 22 21 27 25 26 24 19 17 15 16 14 14
41 41 38 37 37 37 36 33 35 38 39 40 39 42 42 27 18 35 40 40 35 34 8 33 9 42 13 17 21 18 16 23 20 18 19 23 23 18 16 8 11 17 19 21
34 33 34 37 40 41 40 39 40 41 45 50 49 46 37 31 20 24 36 37 23 18 18 11 17 15 18 21 19 23 21 20 17 19 24 24 18 11 11 13 19 18 22 18
29 31 33 35 39 43 46 47 43 46 52 53 55 49 31 26 14 16 16 15 8 19 30 26 16 24 29 30 32 31 21 20 25 25 27 24 20 16 12 22 22 17 17 16
31 31 34 39 39 38 44 49 45 47 53 59 58 45 19 9 10 8 10 11 11 4 12 15 21 23 30 29 22 13 17 19 20 16 18 21 21 23 15 22 24 16 15 15
31 32 37 37 42 46 42 41 41 44 43 38 23 21 28 11 13 16 12 7 4 7 5 9 14 23 22 17 20 23 8 14 11 8 13 19 20 15 15 15 22 20 26 19
27 32 28 24 30 28 21 24 26 20 19 20 1 27 22 7 5 8 8 8 8 16 6 11 18 16 12 8 7 12 5 15 17 18 20 21 18 21 20 19 22 19 22 24
21 36 24 26 22 26 30 9 19 15 10 1 6 14 14 9 4 8 9 7 11 10 11 14 13 17 15 16 16 16 18 16 26 22 19 18 22 27 24 21 22 23 22 26
24 30 25 25 31 26 23 20 16 13 7 8 9 9 8 7 6 9 7 13 13 12 13 13 16 18 22 22 22 31 15 24 19 13 13 19 23 17 18 25 25 26 26 25
22 20 15 19 22 20 22 20 21 14 10 5 6 5 9 8 6 6 7 12 23 24 22 21 23 23 20 22 28 16 22 28 25 24 25 20 13 23 24 23 26 25 27 29
23 30 31 24 21 20 23 21 18 18 15 15 16 14 16 13 9 8 11 17 20 25 32 31 24 23 27 24 22 19 20 26 25 27 29 33 29 14 18 25 28 31 26 26
26 23 33 31 31 11 18 20 20 15 15 15 20 21 10 10 20 20 19 19 25 26 28 33 31 30 26 24 19 29 21 23 26 29 30 22 19 31 18 23 26 27 27 26
Wind_Direction_500mb
213 245 269 208 196 210 207 209 164 224 155 179 154 166 141 126 141 171 202 203 202 195 197 202 201 202 208 210 209 206 204 208 215 225 237 246 241 236 227 246 275 280 287 290
112 357 242 249 198 212 236 216 244 238 220 194 188 171 170 167 181 186 221 237 222 212 202 203 204 206 206 206 201 201 203 208 213 226 237 240 236 235 232 253 268 271 285 283
160 359 337 326 273 229 247 213 207 226 220 132 118 121 143 131 122 144 246 272 278 259 224 210 207 209 208 196 194 199 198 204 215 228 235 236 237 238 236 247 256 274 284 285
148 124 249 247 301 332 78 41 41 38 139 125 132 137 152 170 185 199 222 225 256 274 283 224 213 207 206 194 201 198 193 205 221 232 235 238 239 239 237 248 259 279 286 301
128 186 218 273 263 141 163 59 35 44 120 139 146 106 76 150 219 177 154 214 253 274 288 215 214 210 200 197 200 201 208 217 224 229 232 233 236 237 245 249 261 268 284 288
80 95 103 237 146 108 38 60 3 84 46 29 114 96 193 100 110 124 161 194 285 292 264 213 212 204 200 201 203 206 213 219 230 233 236 235 238 237 241 249 264 263 287 293
118 115 285 355 288 94 110 231 22 105 107 99 95 124 86 89 169 203 211 207 208 197 215 211 203 198 200 203 201 211 219 221 232 234 238 239 240 240 242 252 252 276 284 291
129 95 282 346 325 111 157 86 96 69 65 85 74 36 26 335 332 358 217 209 211 207 206 208 202 197 196 206 209 219 219 230 238 232 234 237 241 251 244 244 263 310 287 293
213 140 170 94 18 23 47 49 47 59 53 44 46 38 8 352 310 306 262 206 199 197 201 186 189 193 190 181 203 204 246 229 223 214 229 233 248 252 242 272 298 292 293 296
193 22 349 355 31 42 33 24 29 29 48 49 32 19 358 325 294 281 245 204 189 188 184 179 168 166 172 184 323 242 38 288 357 308 261 235 236 246 259 282 306 296 287 264
93 55 79 44 68 78 75 57 25 350 36 34 29 12 343 314 260 230 199 186 186 179 173 173 174 179 183 253 209 46 143 277 279 252 256 258 268 272 272 272 275 268 269 277
149 57 84 290 40 80 75 50 34 357 359 9 41 31 54 94 115 132 148 172 174 171 185 173 170 188 244 36 181 258 250 248 237 254 246 259 264 253 247 255 249 259 273 286
156 125 166 257 69 54 51 19 2 327 351 347 350 347 335 249 241 212 182 168 159 170 182 193 215 165 149 276 196 196 214 223 230 228 232 244 245 251 277 268 262 272 286 297
94 108 95 42 28 29 12 354 339 329 321 333 326 332 346 275 241 232 244 239 223 229 239 213 179 191 160 207 209 204 205 218 217 219 232 225 235 263 284 283 272 282 294 290
71 65 56 47 42 25 1 355 360 355 353 349 336 328 340 341 246 225 202 202 213 203 209 232 219 191 171 178 180 187 190 219 221 217 221 251 263 265 263 243 241 259 287 276
58 52 41 27 18 12 6 3 357 344 337 332 330 325 321 334 262 206 202 202 186 214 232 213 239 217 188 183 198 203 210 233 209 219 245 253 253 261 253 253 277 273 299 309
44 27 16 7 357 348 343 336 329 328 324 329 314 316 316 321 343 203 187 194 197 208 241 222 177 357 203 196 211 221 237 238 246 272 240 253 260 269 259 235 258 265 285 297
18 3 350 340 334 328 321 316 316 313 308 307 313 313 292 300 311 229 220 215 214 184 189 229 309 234 250 262 247 244 261 228 238 233 251 257 245 230 208 226 263 275 295 304
352 338 326 317 309 303 312 312 306 309 305 297 307 299 289 286 250 216 224 234 224 203 220 220 198 228 260 259 262 251 251 251 244 248 266 233 226 215 245 265 247 277 289 298
350 347 341 327 322 317 307 311 305 305 305 298 298 280 232 128 248 217 215 256 288 274 226 213 202 242 234 245 242 199 232 244 260 265 246 244 245 257 254 235 238 224 262 267
341 335 328 326 320 313 311 317 318 318 318 312 283 236 212 167 107 98 96 105 100 271 290 247 253 218 238 266 251 207 223 264 263 258 266 272 269 263 255 254 267 260 228 231
337 324 324 328 332 332 330 331 336 330 304 284 287 4 319 56 108 154 179 206 240 263 298 234 214 216 235 260 244 187 303 249 251 259 266 271 244 242 239 256 253 244 231 237
15 18 29 7 354 354 348 354 349 341 346 51 265 243 304 321 297 239 221 253 226 248 254 215 220 224 228 231 235 269 250 307 274 266 257 263 260 261 264 245 254 242 239 229
5 9 3 360 12 11 12 18 10 19 348 340 19 17 29 11 278 259 247 239 247 259 263 258 235 244 244 258 261 301 239 284 260 257 265 286 273 261 250 245 249 244 238 244
352 339 352 358 360 357 359 355 345 318 323 340 348 282 302 341 353 259 246 228 233 244 247 253 264 277 280 298 297 236 283 264 269 267 264 267 268 260 253 248 244 250 249 247
332 333 335 312 332 348 350 349 358 1 3 347 334 320 302 297 182 216 242 269 249 238 246 263 279 283 287 286 285 256 284 255 261 277 279 274 251 255 254 253 248 246 251 237
340 337 326 328 302 298 327 332 314 337 344 339 323 339 286 283 285 277 250 256 264 247 246 262 266 267 274 271 290 247 274 267 275 266 259 264 273 243 239 251 251 250 251 251
Wind_Speed_850mb
16 14 7 18 12 17 16 16 15 14 19 22 22 15 24 25 15 16 31 47 62 84 88 94 97 96 90 83 78 66 58 49 44 40 30 25 21 18 14 14 15 19 27 28
3 5 10 12 29 29 33 25 14 16 14 25 51 48 28 30 27 16 10 22 48 75 82 90 99 102 98 93 82 68 58 51 46 40 37 33 26 21 20 20 24 27 34 34
9 2 12 12 9 11 16 29 31 25 17 12 18 17 27 27 16 5 12 11 12 12 73 82 96 100 100 91 73 67 61 54 53 47 42 36 30 28 27 31 32 33 32 34
8 7 11 13 15 10 31 27 32 17 27 26 33 40 31 27 21 16 15 16 16 23 22 61 83 93 94 85 81 70 69 57 52 47 45 38 36 37 36 36 36 31 32 35
9 11 8 9 15 5 7 6 17 33 25 50 56 48 31 18 44 28 19 7 8 13 17 43 67 82 90 84 77 76 63 56 55 48 44 42 47 41 39 42 42 44 42 44
8 11 0 15 12 20 12 7 10 35 22 12 23 12 7 29 26 20 15 11 5 10 19 42 63 78 84 80 74 70 60 55 48 48 49 51 47 45 48 47 49 44 46 49
10 5 15 19 27 39 9 14 27 31 46 38 11 15 22 15 6 16 16 17 13 15 19 43 66 71 70 59 68 64 52 41 41 48 49 48 44 48 50 48 47 37 43 39
7 9 9 41 20 10 5 41 41 37 34 35 22 22 16 8 19 22 25 27 28 28 35 39 66 72 66 61 56 37 45 45 49 50 42 43 46 46 45 35 33 39 45 35
5 9 8 17 23 51 46 39 33 32 26 24 25 21 20 23 27 35 27 39 39 37 36 53 63 66 63 31 61 53 35 51 45 36 40 40 47 46 35 27 32 37 39 28
2 8 7 29 25 35 49 49 31 22 26 27 29 28 25 24 28 33 28 41 42 55 59 57 44 47 43 43 17 12 17 15 52 31 23 28 33 26 28 36 29 44 34 28
9 20 13 20 13 14 25 39 44 31 29 26 24 26 23 18 9 16 29 47 50 53 55 50 45 45 42 26 20 18 4 22 39 47 49 39 39 32 31 29 33 28 28 27
5 5 18 20 21 21 24 24 16 19 26 18 17 20 12 16 14 19 25 32 41 49 48 51 39 18 5 9 10 33 29 24 41 29 20 24 25 24 22 17 21 27 27 25
19 44 19 17 20 22 17 13 15 18 22 25 27 23 12 8 10 12 15 18 21 22 19 20 22 14 22 11 13 42 29 33 30 21 26 27 27 22 20 16 16 19 18 17
35 31 20 23 25 25 19 18 19 21 25 26 24 23 31 25 30 29 31 30 28 34 31 18 11 19 9 30 30 23 21 26 20 21 23 26 24 18 15 16 15 15 12 10
40 35 28 18 12 11 13 20 21 26 29 28 29 33 37 36 34 41 37 30 25 19 17 22 25 24 21 17 20 19 18 18 21 29 25 20 23 24 19 17 17 16 13 14
36 32 28 28 29 26 24 26 26 27 32 36 35 40 38 38 26 36 36 36 31 19 17 17 24 27 20 19 16 24 24 18 22 21 27 25 26 24 19 17 15 16 14 14
41 41 38 37 37 37 36 33 35 38 39 40 39 42 42 27 18 35 40 40 35 34 8 33 9 42 13 17 21 18 16 23 20 18 19 23 23 18 16 8 11 17 19 21
34 33 34 37 40 41 40 39 40 41 45 50 49 46 37 31 20 24 36 37 23 18 18 11 17 15 18 21 19 23 21 20 17 19 24 24 18 11 11 13 19 18 22 18
29 31 33 35 39 43 46 47 43 46 52 53 55 49 31 26 14 16 16 15 8 19 30 26 16 24 29 30 32 31 21 20 25 25 27 24 20 16 12 22 22 17 17 16
31 31 34 39 39 38 44 49 45 47 53 59 58 45 19 9 10 8 10 11 11 4 12 15 21 23 30 29 22 13 17 19 20 16 18 21 21 23 15 22 24 16 15 15
31 32 37 37 42 46 42 41 41 44 43 38 23 21 28 11 13 16 12 7 4 7 5 9 14 23 22 17 20 23 8 14 11 8 13 19 20 15 15 15 22 20 26 19
27 32 28 24 30 28 21 24 26 20 19 20 1 27 22 7 5 8 8 8 8 16 6 11 18 16 12 8 7 12 5 15 17 18 20 21 18 21 20 19 22 19 22 24
21 36 24 26 22 26 30 9 19 15 10 1 6 14 14 9 4 8 9 7 11 10 11 14 13 17 15 16 16 16 18 16 26 22 19 18 22 27 24 21 22 23 22 26
24 30 25 25 31 26 23 20 16 13 7 8 9 9 8 7 6 9 7 13 13 12 13 13 16 18 22 22 22 31 15 24 19 13 13 19 23 17 18 25 25 26 26 25
22 20 15 19 22 20 22 20 21 14 10 5 6 5 9 8 6 6 7 12 23 24 22 21 23 23 20 22 28 16 22 28 25 24 25 20 13 23 24 23 26 25 27 29
23 30 31 24 21 20 23 21 18 18 15 15 16 14 16 13 9 8 11 17 20 25 32 31 24 23 27 24 22 19 20 26 25 27 29 33 29 14 18 25 28 31 26 26
26 23 33 31 31 11 18 20 20 15 15 15 20 21 10 10 20 20 19 19 25 26 28 33 31 30 26 24 19 29 21 23 26 29 30 22 19 31 18 23 26 27 27 26
Wind_Direction_850mb
213 245 269 208 196 210 207 209 164 224 155 179 154 166 141 126 141 171 202 203 202 195 197 202 201 202 208 210 209 206 204 208 215 225 237 246 241 236 227 246 275 280 287 290
112 357 242 249 198 212 236 216 244 238 220 194 188 171 170 167 181 186 221 237 222 212 202 203 204 206 206 206 201 201 203 208 213 226 237 240 236 235 232 253 268 271 285 283
160 359 337 326 273 229 247 213 207 226 220 132 118 121 143 131 122 144 246 272 278 259 224 210 207 209 208 196 194 199 198 204 215 228 235 236 237 238 236 247 256 274 284 285
148 124 249 247 301 332 78 41 41 38 139 125 132 137 152 170 185 199 222 225 256 274 283 224 213 207 206 194 201 198 193 205 221 232 235 238 239 239 237 248 259 279 286 301
128 186 218 273 263 141 163 59 35 44 120 139 146 106 76 150 219 177 154 214 253 274 288 215 214 210 200 197 200 201 208 217 224 229 232 233 236 237 245 249 261 268 284 288
80 95 103 237 146 108 38 60 3 84 46 29 114 96 193 100 110 124 161 194 285 292 264 213 212 204 200 201 203 206 213 219 230 233 236 235 238 237 241 249 264 263 287 293
118 115 285 355 288 94 110 231 22 105 107 99 95 124 86 89 169 203 211 207 208 197 215 211 203 198 200 203 201 211 219 221 232 234 238 239 240 240 242 252 252 276 284 291
129 95 282 346 325 111 157 86 96 69 65 85 74 36 26 335 332 358 217 209 211 207 206 208 202 197 196 206 209 219 219 230 238 232 234 237 241 251 244 244 263 310 287 293
213 140 170 94 18 23 47 49 47 59 53 44 46 38 8 352 310 306 262 206 199 197 201 186 189 193 190 181 203 204 246 229 223 214 229 233 248 252 242 272 298 292 293 296
193 22 349 355 31 42 33 24 29 29 48 49 32 19 358 325 294 281 245 204 189 188 184 179 168 166 172 184 323 242 38 288 357 308 261 235 236 246 259 282 306 296 287 264
93 55 79 44 68 78 75 57 25 350 36 34 29 12 343 314 260 230 199 186 186 179 173 173 174 179 183 253 209 46 143 277 279 252 256 258 268 272 272 272 275 268 269 277
149 57 84 290 40 80 75 50 34 357 359 9 41 31 54 94 115 132 148 172 174 171 185 173 170 188 244 36 181 258 250 248 237 254 246 259 264 253 247 255 249 259 273 286
156 125 166 257 69 54 51 19 2 327 351 347 350 347 335 249 241 212 182 168 159 170 182 193 215 165 149 276 196 196 214 223 230 228 232 244 245 251 277 268 262 272 286 297
94 108 95 42 28 29 12 354 339 329 321 333 326 332 346 275 241 232 244 239 223 229 239 213 179 191 160 207 209 204 205 218 217 219 232 225 235 263 284 283 272 282 294 290
71 65 56 47 42 25 1 355 360 355 353 349 336 328 340 341 246 225 202 202 213 203 209 232 219 191 171 178 180 187 190 219 221 217 221 251 263 265 263 243 241 259 287 276
58 52 41 27 18 12 6 3 357 344 337 332 330 325 321 334 262 206 202 202 186 214 232 213 239 217 188 183 198 203 210 233 209 219 245 253 253 261 253 253 277 273 299 309
44 27 16 7 357 348 343 336 329 328 324 329 314 316 316 321 343 203 187 194 197 208 241 222 177 357 203 196 211 221 237 238 246 272 240 253 260 269 259 235 258 265 285 297
18 3 350 340 334 328 321 316 316 313 308 307 313 313 292 300 311 229 220 215 214 184 189 229 309 234 250 262 247 244 261 228 238 233 251 257 245 230 208 226 263 275 295 304
352 338 326 317 309 303 312 312 306 309 305 297 307 299 289 286 250 216 224 234 224 203 220 220 198 228 260 259 262 251 251 251 244 248 266 233 226 215 245 265 247 277 289 298
350 347 341 327 322 317 307 311 305 305 305 298 298 280 232 128 248 217 215 256 288 274 226 213 202 242 234 245 242 199 232 244 260 265 246 244 245 257 254 235 238 224 262 267
341 335 328 326 320 313 311 317 318 318 318 312 283 236 212 167 107 98 96 105 100 271 290 247 253 218 238 266 251 207 223 264 263 258 266 272 269 263 255 254 267 260 228 231
337 324 324 328 332 332 330 331 336 330 304 284 287 4 319 56 108 154 179 206 240 263 298 234 214 216 235 260 244 187 303 249 251 259 266 271 244 242 239 256 253 244 231 237
15 18 29 7 354 354 348 354 349 341 346 51 265 243 304 321 297 239 221 253 226 248 254 215 220 224 228 231 235 269 250 307 274 266 257 263 260 261 264 245 254 242 239 229
5 9 3 360 12 11 12 18 10 19 348 340 19 17 29 11 278 259 247 239 247 259 263 258 235 244 244 258 261 301 239 284 260 257 265 286 273 261 250 245 249 244 238 244
352 339 352 358 360 357 359 355 345 318 323 340 348 282 302 341 353 259 246 228 233 244 247 253 264 277 280 298 297 236 283 264 269 267 264 267 268 260 253 248 244 250 249 247
332 333 335 312 332 348 350 349 358 1 3 347 334 320 302 297 182 216 242 269 249 238 246 263 279 283 287 286 285 256 284 255 261 277 279 274 251 255 254 253 248 246 251 237
340 337 326 328 302 298 327 332 314 337 344 339 323 339 286 283 285 277 250 256 264 247 246 262 266 267 274 271 290 247 274 267 275 266 259 264 273 243 239 251 251 250 251 251